CDT,Max TemperatureF,Mean TemperatureF,Min TemperatureF,Max Dew PointF,MeanDew PointF,Min DewpointF,Max Humidity, Mean Humidity, Min Humidity, Max Sea Level PressureIn, Mean Sea Level PressureIn, Min Sea Level PressureIn, Max VisibilityMiles, Mean VisibilityMiles, Min VisibilityMiles, Max Wind SpeedMPH, Mean Wind SpeedMPH, Max Gust SpeedMPH,PrecipitationIn, CloudCover, Events, WindDirDegrees
2013-6-1,59,53,46,58,49,44,100,89,77,30.08,29.83,29.49,,,,30,21,37,0.02,,,7
2013-6-2,65,54,43,47,43,40,100,72,43,30.14,30.08,30.01,,,,12,5,16,0.00,,,2
2013-6-3,67,54,41,51,45,40,96,71,45,30.03,29.95,29.87,,,,26,9,33,0.07,,,135
2013-6-4,73,63,53,61,52,48,90,66,41,29.94,29.89,29.86,,,,18,10,23,0.03,,,187
2013-6-5,67,60,53,53,51,48,93,75,56,30.02,29.96,29.91,,,,23,10,28,0.00,,,341
2013-6-6,63,58,52,52,49,47,93,75,56,30.05,30.03,30.00,,,,14,6,16,0.00,,,51
2013-6-7,72,58,44,52,48,44,100,70,40,30.04,29.94,29.83,,,,15,7,21,0.00,,,178
2013-6-8,69,63,57,56,52,48,93,75,56,29.83,29.79,29.76,,,,30,16,37,0.08,,,155
2013-6-9,64,58,52,58,57,53,100,92,84,29.85,29.79,29.76,,,,18,8,22,0.95,,,71
2013-6-10,78,62,46,63,57,46,100,78,56,29.85,29.79,29.74,,,,16,7,21,0.00,,,159
2013-6-11,76,68,60,61,57,46,100,68,36,29.88,29.84,29.75,,,,16,6,18,0.06,,,17
2013-6-12,73,63,53,59,55,50,97,73,49,30.05,29.90,29.77,,,,28,11,33,0.08,,,344
2013-6-13,79,65,51,57,51,49,89,62,35,30.11,30.05,29.97,,,,15,5,18,0.00,,,62
2013-6-14,84,72,60,68,61,56,84,66,47,29.99,29.81,29.69,,,,29,13,36,0.01,,,178
2013-6-15,81,71,61,63,50,42,81,54,26,29.90,29.85,29.75,,,,18,9,23,0.00,,,325
2013-6-16,85,72,58,61,52,47,67,49,30,29.89,29.85,29.80,,,,31,12,40,0.18,,,276
2013-6-17,79,69,58,59,55,51,84,63,42,29.99,29.94,29.88,,,,21,10,26,0.22,,,328
2013-6-18,79,68,56,61,56,52,93,66,39,30.06,30.00,29.92,,,,9,4,13,0.00,,,154
2013-6-19,89,74,58,63,57,50,87,57,27,29.95,29.86,29.78,,,,29,9,39,0.00,,,183
2013-6-20,85,73,60,73,67,59,100,81,61,29.91,29.78,29.68,,,,35,13,45,2.42,,,139
2013-6-21,73,66,60,67,63,59,97,87,73,29.99,29.87,29.77,,,,37,17,46,0.22,,,68
2013-6-22,78,69,60,68,64,60,100,81,62,29.89,29.82,29.69,,,,17,6,21,0.00,,,156
2013-6-23,79,70,61,69,61,56,100,73,45,29.82,29.70,29.55,,,,32,13,43,0.57,,,268
2013-6-24,82,70,57,68,64,57,100,79,58,29.82,29.76,29.69,,,,20,8,24,0.00,,,174
2013-6-25,89,77,65,74,69,65,100,76,52,29.72,29.64,29.58,,,,32,10,43,0.04,,,177
2013-6-26,87,77,66,67,64,59,93,67,40,29.76,29.68,29.57,,,,26,11,35,0.52,,,303
2013-6-27,85,77,68,64,58,52,84,59,34,29.86,29.83,29.77,,,,26,14,33,0.00,,,321
2013-6-28,82,73,64,61,57,55,81,62,42,29.88,29.87,29.85,,,,30,17,38,0.00,,,344
2013-6-29,80,70,60,60,58,54,90,65,39,29.99,29.93,29.87,,,,21,12,24,0.00,,,1
2013-6-30,81,69,56,60,55,49,100,68,36,30.13,30.09,30.01,,,,13,3,22,0.00,,,69